Lincoln, NE

8:02 AM CST on December 09, 2019 (GMT -0600)
Lincoln Municipal

Weather History for KLNK - November, 2019

Change the Weather History Date:

Thursday, November 14, 2019

  Actual Average Record
Temperature  
Mean Temperature 36 °F 40 °F  
Max Temperature 50 °F 51 °F 75 °F (1990)
Min Temperature 22 °F 28 °F -1 °F (1940)
Degree Days  
Heating Degree Days 29 25  
Month to date heating degree days 427 305  
Since 1 July heating degree days 938 784  
Cooling Degree Days 0 0  
Month to date cooling degree days 0 0  
Year to date cooling degree days 1332 1173  
Moisture  
Dew Point 22 °F    
Average Humidity 60    
Maximum Humidity 88    
Minimum Humidity 31    
Precipitation  
Precipitation 0.00 in 0.05 in 1.71 in (1926)
Month to date precipitation 0.02 0.73  
Year to date precipitation 32.77 27.30  
Snow  
Snow 0.00 in 0.00 in 0.40 in (1968)
Month to date snowfall 0.5 0.6  
Since 1 July snowfall 1.2 1.3  
Since 1 September snowfall 1.2 1.3  
Snow Depth 0.00 in    
Sea Level Pressure  
Sea Level Pressure 30.36 in    
Wind  
Wind Speed 4 mph (NW)    
Max Wind Speed 15 mph    
Max Gust Speed 20 mph    
Visibility 10 miles    
Events      
T = Trace of Precipitation, MM = Missing Value Source: NWS Daily Summary

Daily Weather History Graph

Daily Weather History Graph

Search for Another Location

Airport or City:

Astronomy

Nov. 14, 2019 Rise Set
Actual Time 7:12 AM CST 5:09 PM CST
Civil Twilight 6:43 AM CST 5:39 PM CST
Nautical Twilight 6:10 AM CST 6:12 PM CST
Astronomical Twilight 5:37 AM CST 6:44 PM CST
Moon 6:55 PM CST (11/14) 9:09 AM CST (11/14)
Length of Visible Light 10h 55m
Length of Day
9h 56m
Waning Gibbous, 95% of the Moon is Illuminated
Nov 14
Waning Gibbous
Nov 19
Last Quarter
Nov 26
New
Dec 4
First Quarter
Dec 11
Full

Hourly Weather History & Observations

Time (CST) Temp. Windchill Dew Point Humidity Pressure Visibility Wind Dir Wind Speed Gust Speed Precip Events Conditions
12:54 AM 34.0 °F 27.2 °F 26.1 °F 73% 30.23 in 10.0 mi North 8.1 mph - N/A   Clear
1:54 AM 32.0 °F 26.4 °F 26.1 °F 79% 30.25 in 10.0 mi NNW 5.8 mph - N/A   Clear
2:54 AM 30.9 °F 25.2 °F 25.0 °F 79% 30.27 in 10.0 mi NW 5.8 mph - N/A   Clear
3:54 AM 30.0 °F 24.1 °F 25.0 °F 82% 30.29 in 10.0 mi NW 5.8 mph - N/A   Clear
4:54 AM 24.1 °F 18.2 °F 21.0 °F 88% 30.32 in 9.0 mi North 4.6 mph - N/A   Clear
5:54 AM 23.0 °F - 19.9 °F 88% 30.35 in 8.0 mi Calm Calm - N/A   Clear
6:54 AM 23.0 °F 18.4 °F 18.0 °F 81% 30.38 in 8.0 mi WSW 3.5 mph - N/A   Clear
7:54 AM 26.1 °F 21.9 °F 21.9 °F 84% 30.39 in 6.0 mi West 3.5 mph - N/A   Clear
8:54 AM 30.9 °F 26.2 °F 24.1 °F 76% 30.41 in 9.0 mi NW 4.6 mph - N/A   Clear
9:54 AM 35.1 °F 31.0 °F 21.0 °F 57% 30.41 in 10.0 mi NW 4.6 mph - N/A   Clear
10:54 AM 39.9 °F 34.5 °F 23.0 °F 51% 30.41 in 10.0 mi NNW 8.1 mph - N/A   Clear
11:54 AM 43.0 °F - 24.1 °F 47% 30.39 in 10.0 mi North - - N/A   Clear
12:54 PM 45.0 °F 40.1 °F 21.9 °F 40% 30.38 in 10.0 mi NNW 9.2 mph 17.3 mph N/A   Clear
1:54 PM 48.0 °F - 21.0 °F 34% 30.35 in 10.0 mi North 6.9 mph - N/A   Clear
2:54 PM 48.9 °F - 19.9 °F 32% 30.35 in 10.0 mi NNW 5.8 mph - N/A   Clear
3:54 PM 48.0 °F - 23.0 °F 37% 30.36 in 10.0 mi WNW 5.8 mph - N/A   Clear
4:54 PM 41.0 °F 38.0 °F 25.0 °F 53% 30.37 in 10.0 mi NNE 4.6 mph - N/A   Clear
5:54 PM 39.9 °F 37.8 °F 24.1 °F 53% 30.38 in 10.0 mi South 3.5 mph - N/A   Clear
6:54 PM 33.1 °F - 23.0 °F 66% 30.39 in 10.0 mi Calm Calm - N/A   Clear
7:54 PM 32.0 °F - 23.0 °F 69% 30.39 in 10.0 mi Calm Calm - N/A   Clear
8:54 PM 28.9 °F 25.2 °F 21.0 °F 72% 30.39 in 10.0 mi South 3.5 mph - N/A   Clear
9:54 PM 28.0 °F 22.8 °F 21.0 °F 75% 30.38 in 10.0 mi SE 4.6 mph - N/A   Clear
10:54 PM 28.0 °F - 21.0 °F 75% 30.38 in 10.0 mi Calm Calm - N/A   Clear
11:54 PM 28.0 °F - 21.0 °F 75% 30.38 in 10.0 mi Calm Calm - N/A   Clear